[[{"header":{"parameterUnit":"m.s-1","parameterCategory":1,"la1":30.2991,"la2":30.254,"lo1":-89.0895,"lo2":-89.0444,"dy":0.0017,"dx":0.0017,"nx":28,"ny":28,"refTime":"2024-06-30T03:00:00:Z","depth":0,"parameterNumber":2,"parameterNumberName":"U-component_of_WINDS"},"data":[0,0,0,0,0,0,0,0,0,0,0,0,0,0,0,0,0,0,0,0,0,0,0,0,0,0,0,0,0,0,0,0,0,0,0,0,0,0,0,0,0,0,0,0,0,0,0,0,0,0,0,0,0,0,0,0,0,0,0.6188,0.6188,0,0.6232,0.6232,0.6233,0.6204,0.6202,0.6201,0.62,0.6251,0.6253,0.6256,0,0,0,0,0,0,0,0,0,0,0,0,0,0.6083,0.6085,0.6188,0.6188,0.6189,0.6232,0.6232,0.6233,0.6204,0.6202,0.6201,0.6199,0.625,0.6253,0.6256,0,0,0,0,0,0,0,0,0,0,0,0,0,0.6128,0.6086,0.6188,0.6179,0.6179,0.6232,0.6232,0.6233,0.6204,0.6202,0.62,0.6198,0.6249,0.6253,0.6257,0.6322,0,0,0.6269,0.627,0,0,0,0,0,0,0,0,0.6126,0.6132,0.618,0.618,0.618,0.621,0.6214,0.6263,0.6205,0.6195,0.62,0.6197,0.6239,0.6244,0.6257,0.6324,0.6326,0.6269,0.6271,0.6273,0.6274,0,0,0,0,0,0,0,0.6122,0.613,0.6205,0.6181,0.6181,0.6175,0.6179,0.6223,0.6228,0.6196,0.6194,0.6199,0.6239,0.6253,0.6258,0.6327,0.6269,0.6272,0.6275,0.6276,0.6448,0.645,0,0,0,0,0,0,0.6119,0.6128,0.6204,0.6207,0.6147,0.6178,0.6183,0.6203,0.6228,0.6229,0.62,0.6197,0.6247,0.6253,0.6259,0.6336,0.6273,0.6277,0.6279,0.6446,0.6449,0.6451,0,0,0,0,0,0,0.6117,0.6126,0.6202,0.6167,0.6176,0.6182,0.6204,0.6204,0.6219,0.6231,0.6232,0.6214,0.6246,0.6254,0.6306,0.6338,0.6278,0.6282,0.6443,0.6447,0.645,0.6491,0,0,0,0,0,0,0.6114,0.6126,0.615,0.6167,0.6178,0.6247,0.6206,0.6207,0.6225,0.6221,0.6244,0.6246,0.6245,0.63,0.6309,0.6342,0.6285,0.6441,0.6445,0.6449,0.6487,0.6495,0.6502,0,0,0,0,0,0.6111,0.6161,0.6151,0.6161,0.6208,0.6248,0.6255,0.6251,0.6227,0.6252,0.626,0.6245,0.6332,0.6305,0.6316,0.635,0.6439,0.6444,0.6449,0.6483,0.6494,0.6502,0,0,0,0,0,0,0.615,0.6164,0.6153,0.621,0.6228,0.6243,0.6274,0.6262,0.6289,0.6284,0.628,0.6286,0.6339,0.635,0.632,0.6414,0.6382,0.6389,0.6405,0.6415,0.6422,0.6419,0.6288,0,0,0,0,0,0.6165,0.6196,0.6206,0.6256,0.6265,0.6268,0.6286,0.6281,0.63,0.6309,0.632,0.6341,0.6373,0.6394,0.6425,0.6488,0.6492,0.6517,0.6524,0.6531,0.6537,0.6571,0.6581,0.6467,0.6467,0.6467,0,0,0.6198,0.6208,0.6229,0.6264,0.6278,0.631,0.6275,0.6312,0.6336,0.6315,0.6363,0.6373,0.6396,0.6453,0.6479,0.6464,0.6569,0.6537,0.6542,0.6545,0.6577,0.6588,0.6597,0.6471,0.647,0.647,0,0,0.6273,0.6284,0.6326,0.6339,0.6359,0.636,0.637,0.6387,0.6391,0.6439,0.6423,0.6453,0.6509,0.6525,0.6541,0.6619,0.6607,0.6629,0.6671,0.6703,0.6712,0.672,0.6748,0.6758,0.6636,0.6636,0.6636,0,0.6311,0.6358,0.635,0.6387,0.6403,0.6382,0.6424,0.6438,0.6468,0.648,0.6462,0.6529,0.6543,0.6604,0.6622,0.6636,0.6648,0.6627,0.6711,0.6719,0.6727,0.6753,0.6764,0.6639,0.6638,0.6638,0.6638,0,0.6404,0.6436,0.6468,0.6494,0.6514,0.6554,0.6552,0.6573,0.6566,0.6569,0.6618,0.6634,0.6666,0.668,0.6675,0.674,0.6729,0.6711,0.668,0.674,0.6765,0.6775,0.6642,0.6641,0.6641,0.664,0,0,0.6507,0.6525,0.6537,0.6548,0.6567,0.6593,0.6632,0.666,0.6678,0.6699,0.6732,0.6778,0.676,0.6778,0.6774,0.6803,0.6863,0.6781,0.6782,0.6796,0.6935,0.6948,0.696,0.6854,0.6856,0.6858,0.6933,0,0.6583,0.6648,0.6641,0.6704,0.6733,0.6713,0.6747,0.6763,0.6766,0.6793,0.6798,0.683,0.6805,0.6816,0.6843,0.685,0.6891,0.6844,0.6886,0.6888,0.6881,0.6973,0.6988,0.7058,0.6942,0.6944,0.6945,0,0.6681,0.6701,0.6766,0.6779,0.6791,0.6821,0.6846,0.6872,0.689,0.689,0.6909,0.6899,0.6939,0.6905,0.696,0.6929,0.6945,0.6951,0.6954,0.6958,0.692,0.698,0.708,0.7091,0.6961,0.6959,0.6958,0,0.6749,0.6793,0.6837,0.6847,0.6863,0.6885,0.6893,0.6908,0.6925,0.6948,0.6959,0.6987,0.7002,0.7024,0.7023,0.6998,0.7079,0.7045,0.7081,0.7081,0.71,0.7099,0.7204,0.711,0.711,0.711,0.7109,0,0.6835,0.6875,0.6868,0.6895,0.694,0.6931,0.6976,0.6982,0.6995,0.7024,0.7009,0.7036,0.7032,0.7061,0.706,0.7105,0.7113,0.7115,0.7114,0.7116,0.7116,0.7128,0.7123,0.7112,0.7112,0.7111,0.7111,0,0.6919,0.6916,0.6962,0.6972,0.6975,0.7008,0.7017,0.7043,0.7045,0.7081,0.7089,0.7092,0.7124,0.7124,0.7162,0.7162,0.7217,0.7211,0.721,0.7209,0.7245,0.7242,0.7362,0.7377,0.7273,0.7274,0.7275,0,0.6974,0.7004,0.7016,0.7033,0.7041,0.7069,0.7086,0.7078,0.7096,0.7117,0.7141,0.7171,0.7194,0.7247,0.7254,0.7282,0.7276,0.7317,0.7281,0.7281,0.7277,0.7275,0.7278,0.7324,0.7325,0.7326,0.7327,0,0.7072,0.7068,0.7091,0.7114,0.7133,0.7151,0.7168,0.7183,0.7177,0.7199,0.7229,0.7248,0.7284,0.7314,0.7341,0.7351,0.7339,0.7338,0.7347,0.735,0.7348,0.735,0.723,0.7335,0.7334,0.7334,0.7333,0.7333,0.7143,0.7168,0.718,0.7206,0.7217,0.7232,0.7256,0.7259,0.7284,0.7312,0.7306,0.7341,0.7357,0.7391,0.7403,0.7431,0.7417,0.7431,0.7435,0.7439,0.7442,0.7343,0.7436,0.7436,0.7435,0.7435,0.7435,0,0.724,0.7245,0.7269,0.7291,0.7312,0.7295,0.7312,0.7331,0.7361,0.7375,0.7398,0.7433,0.7462,0.747,0.7497,0.7518,0.7513,0.7526,0.7525,0.7527,0.7453,0.7442,0.7529,0.7529,0.7529,0.7529,0.7529,0.7529,0.7292,0.7334,0.7331,0.7377,0.7383,0.7415,0.7426,0.744,0.7452,0.7491,0.7513,0.7517,0.7529,0.7557,0.7583,0.7584,0.7596,0.7611,0.761,0.7542,0.7532,0.7523,0.7512,0.7613,0.7613,0.7681,0.7682,0.7682]},{"header":{"parameterUnit":"m.s-1","parameterCategory":1,"la1":30.2991,"la2":30.254,"lo1":-89.0895,"lo2":-89.0444,"dy":0.0017,"dx":0.0017,"nx":28,"ny":28,"refTime":"2024-06-30T03:00:00:Z","depth":0,"parameterNumber":3,"parameterNumberName":"V-component_of_WINDS"},"data":[0,0,0,0,0,0,0,0,0,0,0,0,0,0,0,0,0,0,0,0,0,0,0,0,0,0,0,0,0,0,0,0,0,0,0,0,0,0,0,0,0,0,0,0,0,0,0,0,0,0,0,0,0,0,0,0,0,0,6.3041,6.3042,0,6.3122,6.3123,6.3124,6.3057,6.3054,6.3052,6.3049,6.3123,6.3127,6.3132,0,0,0,0,0,0,0,0,0,0,0,0,0,6.2821,6.2826,6.3041,6.3042,6.3043,6.3122,6.3123,6.3124,6.3058,6.3054,6.3051,6.3048,6.3121,6.3127,6.3132,0,0,0,0,0,0,0,0,0,0,0,0,0,6.2911,6.2827,6.3041,6.302,6.3019,6.3122,6.3123,6.3124,6.3058,6.3054,6.305,6.3046,6.312,6.3126,6.3133,6.3258,0,0,6.3154,6.3157,0,0,0,0,0,0,0,0,6.2906,6.2919,6.3022,6.3022,6.3021,6.3075,6.3072,6.3169,6.3059,6.3043,6.3049,6.3044,6.311,6.3117,6.3141,6.3261,6.3265,6.3154,6.3158,6.3161,6.3163,0,0,0,0,0,0,0,6.2899,6.2915,6.3073,6.3023,6.3023,6.3003,6.3012,6.309,6.3098,6.3044,6.304,6.305,6.3109,6.3135,6.3142,6.3266,6.3154,6.316,6.3164,6.3167,6.3491,6.3496,0,0,0,0,0,0,6.2897,6.291,6.307,6.3075,6.2952,6.3011,6.302,6.3062,6.3097,6.3099,6.3054,6.3047,6.3125,6.3134,6.3145,6.3292,6.3161,6.3168,6.3172,6.3487,6.3492,6.3497,0,0,0,0,0,0,6.2892,6.2912,6.3067,6.2992,6.301,6.3019,6.3067,6.3066,6.3092,6.3105,6.3105,6.308,6.3122,6.3135,6.3231,6.3294,6.3171,6.3177,6.3481,6.3488,6.3495,6.359,0,0,0,0,0,0,6.2886,6.291,6.296,6.2993,6.3014,6.3154,6.3071,6.307,6.3105,6.3097,6.3129,6.3131,6.312,6.3221,6.3237,6.3301,6.3182,6.3476,6.3485,6.3493,6.3581,6.3599,6.3614,0,0,0,0,0,6.2879,6.2982,6.2963,6.2983,6.3077,6.3158,6.317,6.3158,6.311,6.3159,6.3167,6.313,6.3285,6.3231,6.3249,6.3316,6.3472,6.3482,6.3492,6.3573,6.3595,6.3614,0,0,0,0,0,0,6.2952,6.2986,6.2965,6.3083,6.3119,6.3147,6.3207,6.3182,6.3229,6.3219,6.32,6.3208,6.3309,6.3322,6.3261,6.3438,6.337,6.3384,6.3426,6.3447,6.3463,6.3457,6.3188,0,0,0,0,0,6.2983,6.3049,6.3073,6.3175,6.3194,6.3198,6.3233,6.3221,6.3256,6.327,6.3285,6.3318,6.3374,6.3412,6.3464,6.3583,6.3588,6.3638,6.3655,6.3668,6.368,6.3742,6.3764,6.3531,6.353,6.353,0,0,6.3045,6.3072,6.3114,6.319,6.3216,6.3283,6.3211,6.3284,6.3332,6.328,6.3372,6.3385,6.342,6.3528,6.3576,6.3542,6.3746,6.3681,6.3692,6.3696,6.3755,6.3777,6.3797,6.3537,6.3536,6.3535,0,0,6.3192,6.322,6.3307,6.3336,6.3378,6.3381,6.3402,6.3435,6.3442,6.3534,6.3497,6.3552,6.365,6.3676,6.3702,6.3862,6.3828,6.3879,6.3965,6.4026,6.4045,6.4061,6.4116,6.4136,6.3891,6.3891,6.3892,0,6.3263,6.3365,6.3354,6.3431,6.3465,6.3425,6.3511,6.3538,6.3594,6.3617,6.3579,6.3701,6.3722,6.3834,6.3874,6.3897,6.3918,6.3874,6.4044,6.406,6.4074,6.4126,6.4147,6.3897,6.3897,6.3896,6.3895,0,6.3449,6.352,6.3585,6.3643,6.3684,6.3765,6.3765,6.3807,6.3792,6.3798,6.3891,6.3916,6.3972,6.3998,6.3983,6.4109,6.4086,6.4047,6.3977,6.4103,6.4151,6.4171,6.3906,6.3903,6.3902,6.39,0,0,6.3642,6.3697,6.372,6.3746,6.379,6.3843,6.3921,6.398,6.4016,6.4056,6.4119,6.4203,6.4167,6.4197,6.4185,6.4239,6.4361,6.4192,6.4192,6.4221,6.4499,6.4527,6.4551,6.434,6.4344,6.4347,6.4495,0,6.379,6.393,6.3924,6.4053,6.4117,6.4081,6.4149,6.4182,6.4189,6.4242,6.4249,6.4309,6.4257,6.4275,6.4327,6.4335,6.4416,6.4325,6.4396,6.4399,6.4387,6.4576,6.4606,6.4745,6.4514,6.4518,6.452,0,6.3981,6.4031,6.4168,6.4203,6.423,6.4292,6.4344,6.4397,6.4432,6.4434,6.4469,6.4447,6.4524,6.4455,6.4558,6.4496,6.4525,6.4534,6.4539,6.4543,6.4465,6.4584,6.4789,6.4809,6.455,6.4548,6.4545,0,6.4106,6.4208,6.4303,6.4326,6.437,6.4414,6.4433,6.4466,6.4501,6.4546,6.4569,6.4621,6.465,6.469,6.4682,6.4633,6.4788,6.4718,6.4788,6.4789,6.482,6.4818,6.5031,6.4843,6.4843,6.4842,6.4842,0,6.4271,6.4355,6.436,6.4418,6.4511,6.4502,6.4594,6.4608,6.4637,6.4695,6.4666,6.4721,6.4709,6.4763,6.4757,6.4843,6.4856,6.4857,6.4854,6.4859,6.4859,6.4876,6.4865,6.4848,6.4847,6.4845,6.4845,0,6.4425,6.4432,6.4533,6.4567,6.4578,6.4645,6.4672,6.4726,6.4732,6.4806,6.4822,6.4831,6.4892,6.489,6.4959,6.4955,6.506,6.5047,6.5049,6.5046,6.5115,6.5108,6.5345,6.5375,6.5169,6.5171,6.5173,0,6.4529,6.4593,6.4636,6.4675,6.4698,6.476,6.4797,6.4791,6.4829,6.4876,6.4923,6.4983,6.503,6.513,6.514,6.5193,6.5179,6.5259,6.5187,6.5189,6.5178,6.5174,6.5179,6.5272,6.5275,6.5276,6.5278,0,6.4711,6.4712,6.4768,6.4826,6.4872,6.4916,6.4956,6.4989,6.4986,6.5031,6.5096,6.5133,6.5205,6.5264,6.5314,6.5331,6.5303,6.5301,6.532,6.5324,6.5322,6.5322,6.5086,6.5295,6.5293,6.5292,6.5291,6.5291,6.4841,6.4897,6.4936,6.5,6.5031,6.507,6.5122,6.5136,6.5191,6.5251,6.5243,6.5315,6.5348,6.5413,6.5435,6.5489,6.546,6.5488,6.5494,6.5501,6.5508,6.5316,6.5498,6.5498,6.5497,6.5497,6.5497,0,6.5021,6.5045,6.5104,6.5163,6.5213,6.5187,6.523,6.5272,6.5337,6.5372,6.542,6.5494,6.5551,6.5567,6.5621,6.5661,6.565,6.5675,6.5671,6.5675,6.5531,6.5509,6.5684,6.5684,6.5684,6.5683,6.5683,6.5683,6.5119,6.5212,6.5218,6.5325,6.5347,6.542,6.5447,6.5482,6.551,6.5594,6.5643,6.5654,6.5681,6.5738,6.5788,6.5791,6.5811,6.5842,6.5839,6.5704,6.5685,6.5667,6.5646,6.5847,6.5847,6.5978,6.5979,6.598]}]]